| time (UTC) | temp C | wind direction | speed KPH | gust KPH | rain 1hr cm | rain 24hr cm | rain mn cm | humidity % | barometer mb |
| 20260504214538 | 21 | 360 | 3.2 | 25.7 | 0.00 | 0.03 | 0.03 | 54 | 1006.9 |
| 20260504213033 | 21 | 360 | 4.8 | 19.3 | 0.00 | 0.03 | 0.03 | 53 | 1006.9 |
| 20260504211535 | 21 | 360 | 3.2 | 16.1 | 0.00 | 0.03 | 0.03 | 54 | 1007.2 |
| 20260504210034 | 21 | 360 | 3.2 | 24.1 | 0.00 | 0.03 | 0.03 | 57 | 1007.4 |
| 20260504204612 | 21 | 360 | 0.0 | 17.7 | 0.00 | 0.03 | 0.03 | 59 | 1007.6 |
| 20260504203035 | 20 | 360 | 4.8 | 16.1 | 0.00 | 0.03 | 0.03 | 60 | 1007.5 |
| 20260504201534 | 20 | 360 | 4.8 | 19.3 | 0.00 | 0.03 | 0.03 | 63 | 1007.6 |
| 20260504200038 | 18 | 360 | 0.0 | 8.0 | 0.03 | 0.03 | 0.03 | 68 | 1007.9 |
| 20260504194545 | 18 | 267 | 1.6 | 8.0 | 0.03 | 0.03 | 0.03 | 68 | 1008.8 |
| 20260504193033 | 18 | 232 | 1.6 | 12.9 | 0.03 | 0.03 | 0.03 | 66 | 1008.6 |
| 20260504191534 | 18 | 360 | 6.4 | 19.3 | 0.03 | 0.03 | 0.03 | 65 | 1009.4 |
| 20260504190037 | 19 | 360 | 3.2 | 22.5 | 0.00 | 0.00 | 0.00 | 61 | 1008.9 |
| 20260504184537 | 20 | 250 | 3.2 | 20.9 | 0.00 | 0.00 | 0.00 | 60 | 1008.4 |
| 20260504183034 | 20 | 360 | 4.8 | 30.6 | 0.00 | 0.00 | 0.00 | 63 | 1008.1 |
| 20260504181534 | 20 | 167 | 4.8 | 19.3 | 0.00 | 0.00 | 0.00 | 61 | 1008.0 |
| 20260504180036 | 19 | 235 | 3.2 | 16.1 | 0.00 | 0.00 | 0.00 | 62 | 1008.2 |
| 20260504174539 | 19 | 185 | 0.0 | 14.5 | 0.00 | 0.00 | 0.00 | 62 | 1008.0 |
| 20260504173032 | 18 | 360 | 4.8 | 24.1 | 0.00 | 0.00 | 0.00 | 66 | 1008.2 |
| 20260504171542 | 17 | 183 | 1.6 | 19.3 | 0.00 | 0.00 | 0.00 | 63 | 1008.3 |
| 20260504081536 | 10 | 202 | 3.2 | 12.9 | 0.00 | 0.00 | 0.00 | 67 | 1010.7 |
| 20260504044540 | 11 | 0 | 3.2 | 14.5 | 0.00 | 0.00 | 0.00 | 61 | 1012.3 |
| 20260504043038 | 11 | 165 | 1.6 | 11.3 | 0.00 | 0.00 | 0.00 | 61 | 1012.4 |
| 20260504041533 | 11 | 188 | 3.2 | 14.5 | 0.00 | 0.00 | 0.00 | 60 | 1012.6 |
| 20260504040035 | 11 | 0 | 1.6 | 14.5 | 0.00 | 0.00 | 0.00 | 60 | 1012.7 |
| 20260504034541 | 11 | 185 | 1.6 | 8.0 | 0.00 | 0.00 | 0.00 | 62 | 1012.9 |
| 20260504033036 | 11 | 214 | 0.0 | 8.0 | 0.00 | 0.00 | 0.00 | 61 | 1013.0 |
| 20260504031532 | 11 | 198 | 0.0 | 6.4 | 0.00 | 0.00 | 0.00 | 60 | 1013.1 |
| 20260504030039 | 11 | 0 | 0.0 | 6.4 | 0.00 | 0.00 | 0.00 | 60 | 1013.3 |
| 20260504024532 | 11 | 0 | 0.0 | 6.4 | 0.00 | 0.00 | 0.00 | 59 | 1013.6 |
| 20260504023034 | 11 | 0 | 0.0 | 4.8 | 0.00 | 0.00 | 0.00 | 65 | 1013.7 |
| 20260504021537 | 10 | 0 | 0.0 | 3.2 | 0.00 | 0.00 | 0.00 | 67 | 1013.6 |
| 20260504020036 | 10 | 0 | 0.0 | 0.0 | 0.00 | 0.00 | 0.00 | 73 | 1013.5 |
| 20260504014548 | 10 | 0 | 0.0 | 0.0 | 0.00 | 0.00 | 0.00 | 73 | 1013.4 |
| 20260504013034 | 10 | 0 | 0.0 | 3.2 | 0.00 | 0.00 | 0.00 | 72 | 1013.4 |
| 20260504011535 | 10 | 0 | 0.0 | 9.7 | 0.00 | 0.00 | 0.00 | 71 | 1013.6 |
| 20260504010033 | 10 | 0 | 0.0 | 6.4 | 0.00 | 0.00 | 0.00 | 72 | 1013.7 |
| 20260504004532 | 10 | 0 | 0.0 | 4.8 | 0.00 | 0.00 | 0.00 | 72 | 1013.5 |
| 20260504003038 | 10 | 0 | 0.0 | 3.2 | 0.00 | 0.00 | 0.00 | 72 | 1013.2 |
| 20260504001535 | 10 | 109 | 0.0 | 3.2 | 0.00 | 0.00 | 0.00 | 71 | 1012.9 |
| 20260504000035 | 10 | 138 | 0.0 | 4.8 | 0.00 | 0.00 | 0.00 | 70 | 1012.8 |
| 20260503234547 | 11 | 101 | 1.6 | 6.4 | 0.00 | 0.00 | 0.00 | 69 | 1013.0 |
| 20260503233033 | 11 | 101 | 0.0 | 9.7 | 0.00 | 0.00 | 0.00 | 66 | 1013.5 |
| 20260503231533 | 11 | 115 | 1.6 | 6.4 | 0.00 | 0.00 | 0.00 | 65 | 1013.8 |
| 20260503230039 | 11 | 38 | 0.0 | 4.8 | 0.00 | 0.00 | 0.00 | 62 | 1014.1 |
| 20260503224533 | 12 | 0 | 0.0 | 6.4 | 0.00 | 0.00 | 0.00 | 64 | 1014.1 |
| 20260503223035 | 12 | 42 | 0.0 | 6.4 | 0.00 | 0.00 | 0.00 | 61 | 1014.5 |
| 20260503221538 | 11 | 29 | 1.6 | 6.4 | 0.00 | 0.00 | 0.00 | 61 | 1014.5 |
| 20260503220043 | 11 | 346 | 0.0 | 4.8 | 0.00 | 0.00 | 0.00 | 65 | 1014.6 |